Time,TemperatureF,DewpointF,PressureIn,WindDirection,WindDirectionDegrees,WindSpeedMPH,WindSpeedGustMPH,Humidity,HourlyPrecipIn,Conditions,Clouds,dailyrainin,SoftwareType,DateUTC
2013-03-27 00:01:00,49.0,39.0,29.95,NNW,342,0.0,0.0,67,0.00,,,0.00,,2013-03-27 07:01:00,
2013-03-27 00:11:00,49.0,39.0,29.95,NNW,342,0.0,0.0,67,0.00,,,0.00,,2013-03-27 07:11:00,
2013-03-27 00:22:00,48.0,38.0,29.95,NNW,342,0.0,0.0,69,0.00,,,0.00,,2013-03-27 07:22:00,
2013-03-27 00:32:00,48.0,39.0,29.95,NNW,342,0.0,0.0,71,0.00,,,0.00,,2013-03-27 07:32:00,
2013-03-27 00:42:00,48.0,39.0,29.95,NNW,342,0.0,0.0,71,0.00,,,0.00,,2013-03-27 07:42:00,
2013-03-27 00:53:00,47.0,39.0,29.95,NNW,342,0.0,0.0,73,0.00,,,0.00,,2013-03-27 07:53:00,
2013-03-27 01:02:00,47.0,39.0,29.95,NNW,342,0.0,0.0,75,0.00,,,0.00,,2013-03-27 08:02:00,
2013-03-27 01:11:00,47.0,39.0,29.95,NNW,342,0.0,0.0,75,0.00,,,0.00,,2013-03-27 08:11:00,
2013-03-27 01:22:00,47.0,40.0,29.94,NNW,342,0.0,1.0,77,0.00,,,0.00,,2013-03-27 08:22:00,
2013-03-27 01:32:00,47.0,41.0,29.94,NNW,342,0.0,0.0,78,0.00,,,0.00,,2013-03-27 08:32:00,
2013-03-27 01:42:00,47.0,41.0,29.94,NNW,342,0.0,0.0,78,0.00,,,0.00,,2013-03-27 08:42:00,
2013-03-27 01:52:00,47.0,41.0,29.94,NNW,342,0.0,2.0,78,0.00,,,0.00,,2013-03-27 08:52:00,
2013-03-27 02:01:00,47.0,41.0,29.95,NNW,342,0.0,0.0,79,0.00,,,0.00,,2013-03-27 09:01:00,
2013-03-27 02:11:00,47.0,41.0,29.95,NNW,342,0.0,0.0,79,0.00,,,0.00,,2013-03-27 09:11:00,
2013-03-27 02:22:00,46.0,40.0,29.95,NNW,342,0.0,0.0,80,0.00,,,0.00,,2013-03-27 09:22:00,
2013-03-27 02:32:00,46.0,41.0,29.95,NNW,342,0.0,0.0,82,0.00,,,0.00,,2013-03-27 09:32:00,
2013-03-27 02:42:00,46.0,41.0,29.95,NNW,342,0.0,0.0,82,0.00,,,0.00,,2013-03-27 09:42:00,
2013-03-27 02:52:00,46.0,41.0,29.95,NNW,342,0.0,0.0,81,0.00,,,0.00,,2013-03-27 09:52:00,
2013-03-27 03:02:00,46.0,40.0,29.94,NNE,29,1.0,2.0,80,0.00,,,0.00,,2013-03-27 10:02:00,
2013-03-27 03:12:00,46.0,40.0,29.94,NNE,29,1.0,2.0,80,0.00,,,0.00,,2013-03-27 10:12:00,
2013-03-27 03:22:00,46.0,41.0,29.94,NNE,30,0.0,0.0,82,0.00,,,0.00,,2013-03-27 10:22:00,
2013-03-27 03:32:00,46.0,41.0,29.94,NNE,29,0.0,0.0,81,0.00,,,0.00,,2013-03-27 10:32:00,
2013-03-27 03:42:00,46.0,41.0,29.94,NNE,29,0.0,0.0,81,0.00,,,0.00,,2013-03-27 10:42:00,
2013-03-27 03:52:00,46.0,41.0,29.93,NNE,30,0.0,0.0,81,0.00,,,0.00,,2013-03-27 10:52:00,
2013-03-27 04:02:00,46.0,41.0,29.93,NNE,30,0.0,0.0,81,0.00,,,0.00,,2013-03-27 11:02:00,
2013-03-27 04:11:00,46.0,41.0,29.93,NNE,30,0.0,0.0,81,0.00,,,0.00,,2013-03-27 11:11:00,
2013-03-27 04:22:00,46.0,41.0,29.93,NNE,30,0.0,0.0,81,0.00,,,0.00,,2013-03-27 11:22:00,
2013-03-27 04:32:00,46.0,41.0,29.93,NNE,30,0.0,0.0,81,0.00,,,0.00,,2013-03-27 11:32:00,
2013-03-27 04:42:00,46.0,41.0,29.93,NNE,30,0.0,0.0,81,0.00,,,0.00,,2013-03-27 11:42:00,
2013-03-27 04:52:00,46.0,41.0,29.92,NNE,30,0.0,1.0,81,0.00,,,0.00,,2013-03-27 11:52:00,
2013-03-27 05:02:00,46.0,41.0,29.93,NNE,30,0.0,0.0,82,0.00,,,0.00,,2013-03-27 12:02:00,
2013-03-27 05:11:00,46.0,41.0,29.93,NNE,30,0.0,0.0,82,0.00,,,0.00,,2013-03-27 12:11:00,
2013-03-27 05:22:00,46.0,41.0,29.92,NNE,30,0.0,0.0,83,0.00,,,0.00,,2013-03-27 12:22:00,
2013-03-27 05:32:00,45.0,40.0,29.92,NNE,30,0.0,0.0,83,0.00,,,0.00,,2013-03-27 12:32:00,
2013-03-27 05:42:00,45.0,40.0,29.92,NNE,30,0.0,0.0,83,0.00,,,0.00,,2013-03-27 12:42:00,
2013-03-27 05:52:00,45.0,40.0,29.92,NNE,29,0.0,0.0,84,0.00,,,0.00,,2013-03-27 12:52:00,
2013-03-27 06:01:00,45.0,41.0,29.92,NNE,29,0.0,0.0,85,0.00,,,0.00,,2013-03-27 13:01:00,
2013-03-27 06:11:00,45.0,41.0,29.92,NNE,29,0.0,0.0,85,0.00,,,0.00,,2013-03-27 13:11:00,
2013-03-27 06:22:00,44.0,40.0,29.92,NNE,29,0.0,1.0,87,0.00,,,0.00,,2013-03-27 13:22:00,
2013-03-27 06:32:00,44.0,41.0,29.92,NNE,29,0.0,1.0,88,0.00,,,0.00,,2013-03-27 13:32:00,
2013-03-27 06:42:00,44.0,41.0,29.92,NNE,29,0.0,1.0,88,0.00,,,0.00,,2013-03-27 13:42:00,
2013-03-27 06:53:00,44.0,41.0,29.92,NNE,30,0.0,0.0,88,0.00,,,0.00,,2013-03-27 13:53:00,
2013-03-27 07:01:00,44.0,41.0,29.91,NNE,30,0.0,0.0,89,0.00,,,0.00,,2013-03-27 14:01:00,
2013-03-27 07:11:00,44.0,41.0,29.91,NNE,30,0.0,0.0,89,0.00,,,0.00,,2013-03-27 14:11:00,
2013-03-27 07:21:00,43.0,40.0,29.91,NNE,30,0.0,0.0,90,0.00,,,0.00,,2013-03-27 14:21:00,
2013-03-27 07:32:00,43.0,41.0,29.91,NNE,29,0.0,0.0,91,0.00,,,0.00,,2013-03-27 14:32:00,
2013-03-27 07:42:00,43.0,41.0,29.91,NNE,29,0.0,0.0,91,0.00,,,0.00,,2013-03-27 14:42:00,
2013-03-27 07:52:00,44.0,41.0,29.91,NNE,30,0.0,1.0,90,0.00,,,0.00,,2013-03-27 14:52:00,
2013-03-27 08:01:00,44.0,42.0,29.92,NNE,30,0.0,0.0,91,0.00,,,0.00,,2013-03-27 15:01:00,
2013-03-27 08:11:00,44.0,42.0,29.92,NNE,30,0.0,0.0,91,0.00,,,0.00,,2013-03-27 15:11:00,
2013-03-27 08:22:00,44.0,42.0,29.92,NNE,30,0.0,0.0,91,0.00,,,0.00,,2013-03-27 15:22:00,
2013-03-27 08:32:00,44.0,41.0,29.92,NNE,29,0.0,1.0,89,0.00,,,0.00,,2013-03-27 15:32:00,
2013-03-27 08:42:00,44.0,41.0,29.92,NNE,29,0.0,1.0,89,0.00,,,0.00,,2013-03-27 15:42:00,
2013-03-27 08:52:00,45.0,42.0,29.92,NNE,29,0.0,0.0,88,0.00,,,0.00,,2013-03-27 15:52:00,
2013-03-27 09:02:00,45.0,42.0,29.92,NNE,30,0.0,0.0,88,0.00,,,0.00,,2013-03-27 16:02:00,
2013-03-27 09:12:00,45.0,42.0,29.92,NNE,30,0.0,0.0,88,0.00,,,0.00,,2013-03-27 16:12:00,
2013-03-27 09:22:00,46.0,42.0,29.92,NNE,30,0.0,0.0,86,0.00,,,0.00,,2013-03-27 16:22:00,
2013-03-27 09:32:00,46.0,42.0,29.93,NNE,30,0.0,1.0,86,0.00,,,0.00,,2013-03-27 16:32:00,
2013-03-27 09:42:00,46.0,42.0,29.93,NNE,30,0.0,1.0,86,0.00,,,0.00,,2013-03-27 16:42:00,
2013-03-27 09:52:00,47.0,43.0,29.93,NNE,29,0.0,1.0,85,0.00,,,0.00,,2013-03-27 16:52:00,
2013-03-27 10:02:00,48.0,43.0,29.93,NNE,30,0.0,1.0,84,0.00,,,0.00,,2013-03-27 17:02:00,
2013-03-27 10:11:00,48.0,43.0,29.93,NNE,30,0.0,1.0,84,0.00,,,0.00,,2013-03-27 17:11:00,
2013-03-27 10:22:00,48.0,44.0,29.93,SSW,209,0.0,4.0,85,0.00,,,0.00,,2013-03-27 17:22:00,
2013-03-27 10:32:00,48.0,43.0,29.93,SSW,209,0.0,1.0,84,0.00,,,0.00,,2013-03-27 17:32:00,
2013-03-27 10:44:00,48.0,43.0,29.93,SSW,209,0.0,1.0,84,0.00,,,0.00,,2013-03-27 17:44:00,
2013-03-27 10:52:00,48.0,43.0,29.94,SSW,209,0.0,3.0,82,0.00,,,0.00,,2013-03-27 17:52:00,
2013-03-27 11:02:00,49.0,43.0,29.94,SW,218,0.0,3.0,81,0.00,,,0.00,,2013-03-27 18:02:00,
2013-03-27 11:12:00,49.0,43.0,29.94,SW,218,0.0,3.0,81,0.00,,,0.00,,2013-03-27 18:12:00,
2013-03-27 11:22:00,49.0,43.0,29.94,SW,218,0.0,2.0,79,0.00,,,0.00,,2013-03-27 18:22:00,
2013-03-27 11:32:00,49.0,43.0,29.94,West,264,1.0,3.0,79,0.00,,,0.00,,2013-03-27 18:32:00,
2013-03-27 11:42:00,49.0,43.0,29.94,West,264,1.0,3.0,79,0.00,,,0.00,,2013-03-27 18:42:00,
2013-03-27 11:53:00,49.0,42.0,29.95,West,264,0.0,2.0,78,0.00,,,0.00,,2013-03-27 18:53:00,
2013-03-27 12:02:00,50.0,43.0,29.95,West,269,1.0,3.0,78,0.00,,,0.00,,2013-03-27 19:02:00,
2013-03-27 12:11:00,50.0,43.0,29.95,West,269,1.0,3.0,78,0.00,,,0.00,,2013-03-27 19:11:00,
2013-03-27 12:21:00,49.0,42.0,29.94,West,260,0.0,2.0,78,0.00,,,0.00,,2013-03-27 19:21:00,
2013-03-27 12:32:00,50.0,44.0,29.95,WSW,250,1.0,3.0,79,0.00,,,0.00,,2013-03-27 19:32:00,
2013-03-27 12:42:00,50.0,44.0,29.95,WSW,250,1.0,3.0,79,0.00,,,0.00,,2013-03-27 19:42:00,
2013-03-27 12:52:00,50.0,43.0,29.94,WNW,282,1.0,4.0,77,0.00,,,0.00,,2013-03-27 19:52:00,
2013-03-27 13:02:00,51.0,43.0,29.94,West,281,1.0,3.0,75,0.00,,,0.00,,2013-03-27 20:02:00,
2013-03-27 13:11:00,51.0,43.0,29.94,West,281,1.0,3.0,75,0.00,,,0.00,,2013-03-27 20:11:00,
2013-03-27 13:22:00,52.0,44.0,29.95,WSW,254,2.0,5.0,73,0.00,,,0.00,,2013-03-27 20:22:00,
2013-03-27 13:31:00,52.0,44.0,29.95,WSW,241,1.0,5.0,73,0.00,,,0.00,,2013-03-27 20:31:00,
2013-03-27 13:42:00,52.0,44.0,29.95,WSW,241,1.0,5.0,73,0.00,,,0.00,,2013-03-27 20:42:00,
2013-03-27 13:52:00,53.0,44.0,29.95,SW,223,0.0,3.0,71,0.00,,,0.00,,2013-03-27 20:52:00,
2013-03-27 14:01:00,53.0,45.0,29.95,NW,304,1.0,7.0,73,0.00,,,0.00,,2013-03-27 21:01:00,
2013-03-27 14:12:00,53.0,45.0,29.95,NW,304,1.0,7.0,73,0.00,,,0.00,,2013-03-27 21:12:00,
2013-03-27 14:22:00,54.0,44.0,29.95,WSW,245,2.0,4.0,70,0.00,,,0.00,,2013-03-27 21:22:00,
2013-03-27 14:32:00,54.0,44.0,29.94,NW,317,2.0,5.0,70,0.00,,,0.00,,2013-03-27 21:32:00,
2013-03-27 14:42:00,54.0,44.0,29.94,NW,317,2.0,5.0,70,0.00,,,0.00,,2013-03-27 21:42:00,
2013-03-27 14:52:00,54.0,45.0,29.94,West,281,1.0,3.0,72,0.00,,,0.00,,2013-03-27 21:52:00,
2013-03-27 15:02:00,54.0,46.0,29.94,West,281,1.0,2.0,74,0.00,,,0.00,,2013-03-27 22:02:00,
2013-03-27 15:12:00,54.0,46.0,29.94,West,281,1.0,2.0,74,0.00,,,0.00,,2013-03-27 22:12:00,
2013-03-27 15:23:00,53.0,45.0,29.95,West,281,1.0,2.0,75,0.00,,,0.00,,2013-03-27 22:23:00,
2013-03-27 15:32:00,53.0,46.0,29.95,West,281,0.0,2.0,78,0.00,,,0.00,,2013-03-27 22:32:00,
2013-03-27 15:42:00,53.0,46.0,29.95,West,281,0.0,2.0,78,0.00,,,0.00,,2013-03-27 22:42:00,
2013-03-27 15:52:00,52.0,47.0,29.95,West,281,0.0,0.0,82,0.01,,,0.01,,2013-03-27 22:52:00,
2013-03-27 16:02:00,51.0,47.0,29.96,West,281,0.0,1.0,85,0.02,,,0.02,,2013-03-27 23:02:00,
2013-03-27 16:11:00,51.0,47.0,29.96,West,281,0.0,1.0,85,0.02,,,0.02,,2013-03-27 23:11:00,
2013-03-27 16:22:00,51.0,47.0,29.95,West,281,0.0,0.0,87,0.02,,,0.02,,2013-03-27 23:22:00,
2013-03-27 16:32:00,51.0,48.0,29.95,West,281,0.0,0.0,90,0.02,,,0.02,,2013-03-27 23:32:00,
2013-03-27 16:42:00,51.0,48.0,29.95,West,281,0.0,0.0,90,0.02,,,0.02,,2013-03-27 23:42:00,
2013-03-27 16:52:00,51.0,48.0,29.95,West,281,0.0,1.0,89,0.01,,,0.02,,2013-03-27 23:52:00,
2013-03-27 17:01:00,51.0,48.0,29.95,West,281,0.0,1.0,90,0.00,,,0.02,,2013-03-28 00:01:00,
2013-03-27 17:11:00,51.0,48.0,29.95,West,281,0.0,1.0,90,0.00,,,0.02,,2013-03-28 00:11:00,
2013-03-27 17:22:00,51.0,48.0,29.95,West,281,0.0,1.0,88,0.00,,,0.02,,2013-03-28 00:22:00,
2013-03-27 17:32:00,52.0,49.0,29.95,West,281,0.0,2.0,88,0.00,,,0.02,,2013-03-28 00:32:00,
2013-03-27 17:42:00,52.0,49.0,29.95,West,281,0.0,2.0,88,0.00,,,0.02,,2013-03-28 00:42:00,
2013-03-27 17:52:00,52.0,49.0,29.95,NNE,31,0.0,2.0,89,0.00,,,0.02,,2013-03-28 00:52:00,
2013-03-27 18:01:00,52.0,48.0,29.95,ENE,57,4.0,7.0,86,0.00,,,0.02,,2013-03-28 01:01:00,
2013-03-27 18:11:00,52.0,48.0,29.95,ENE,57,4.0,7.0,86,0.00,,,0.02,,2013-03-28 01:11:00,
2013-03-27 18:22:00,52.0,47.0,29.95,ENE,61,4.0,8.0,84,0.00,,,0.02,,2013-03-28 01:22:00,
2013-03-27 18:32:00,52.0,47.0,29.95,ENE,69,1.0,7.0,83,0.00,,,0.02,,2013-03-28 01:32:00,
2013-03-27 18:42:00,52.0,47.0,29.95,ENE,69,1.0,7.0,83,0.00,,,0.02,,2013-03-28 01:42:00,
2013-03-27 18:52:00,52.0,47.0,29.94,ENE,63,2.0,7.0,82,0.00,,,0.02,,2013-03-28 01:52:00,
2013-03-27 19:02:00,52.0,47.0,29.94,NE,40,2.0,7.0,83,0.00,,,0.02,,2013-03-28 02:02:00,
2013-03-27 19:12:00,52.0,47.0,29.94,NE,40,2.0,7.0,83,0.00,,,0.02,,2013-03-28 02:12:00,
2013-03-27 19:22:00,52.0,47.0,29.94,ENE,63,2.0,8.0,82,0.00,,,0.02,,2013-03-28 02:22:00,
2013-03-27 19:32:00,51.0,46.0,29.94,East,88,1.0,5.0,83,0.00,,,0.02,,2013-03-28 02:32:00,
2013-03-27 19:42:00,51.0,46.0,29.94,East,88,1.0,5.0,83,0.00,,,0.02,,2013-03-28 02:42:00,
2013-03-27 19:52:00,51.0,46.0,29.94,East,88,1.0,5.0,83,0.00,,,0.02,,2013-03-28 02:52:00,
2013-03-27 20:02:00,51.0,46.0,29.94,ENE,67,1.0,5.0,84,0.00,,,0.02,,2013-03-28 03:02:00,
2013-03-27 20:12:00,51.0,46.0,29.94,ENE,67,1.0,5.0,84,0.00,,,0.02,,2013-03-28 03:12:00,
2013-03-27 20:22:00,49.0,45.0,29.94,ENE,67,0.0,0.0,86,0.00,,,0.02,,2013-03-28 03:22:00,
2013-03-27 20:32:00,48.0,45.0,29.94,ENE,67,0.0,0.0,89,0.00,,,0.02,,2013-03-28 03:32:00,
2013-03-27 20:42:00,48.0,45.0,29.94,ENE,67,0.0,0.0,89,0.00,,,0.02,,2013-03-28 03:42:00,
2013-03-27 20:52:00,48.0,45.0,29.94,ENE,67,0.0,0.0,91,0.00,,,0.02,,2013-03-28 03:52:00,
2013-03-27 21:02:00,47.0,45.0,29.95,ENE,67,0.0,0.0,91,0.00,,,0.02,,2013-03-28 04:02:00,
2013-03-27 21:12:00,47.0,45.0,29.95,ENE,67,0.0,0.0,91,0.00,,,0.02,,2013-03-28 04:12:00,
2013-03-27 21:22:00,46.0,44.0,29.95,ENE,67,0.0,0.0,92,0.00,,,0.02,,2013-03-28 04:22:00,
2013-03-27 21:32:00,45.0,43.0,29.96,ENE,67,0.0,0.0,94,0.00,,,0.02,,2013-03-28 04:32:00,
2013-03-27 21:42:00,45.0,43.0,29.96,ENE,67,0.0,0.0,94,0.00,,,0.02,,2013-03-28 04:42:00,
2013-03-27 21:52:00,45.0,43.0,29.96,ENE,67,0.0,0.0,94,0.00,,,0.02,,2013-03-28 04:52:00,
2013-03-27 22:02:00,45.0,44.0,29.96,ENE,67,0.0,0.0,95,0.00,,,0.02,,2013-03-28 05:02:00,
2013-03-27 22:12:00,45.0,44.0,29.96,ENE,67,0.0,0.0,95,0.00,,,0.02,,2013-03-28 05:12:00,
2013-03-27 22:22:00,45.0,44.0,29.96,ENE,67,0.0,0.0,96,0.00,,,0.02,,2013-03-28 05:22:00,
2013-03-27 22:31:00,44.0,43.0,29.96,ENE,67,0.0,0.0,97,0.00,,,0.02,,2013-03-28 05:31:00,
2013-03-27 22:42:00,44.0,43.0,29.96,ENE,67,0.0,0.0,97,0.00,,,0.02,,2013-03-28 05:42:00,
2013-03-27 22:52:00,44.0,43.0,29.96,ENE,67,0.0,0.0,97,0.00,,,0.02,,2013-03-28 05:52:00,
2013-03-27 23:01:00,44.0,43.0,29.96,ENE,67,0.0,0.0,97,0.00,,,0.02,,2013-03-28 06:01:00,
2013-03-27 23:12:00,44.0,43.0,29.96,ENE,67,0.0,0.0,97,0.00,,,0.02,,2013-03-28 06:12:00,
2013-03-27 23:22:00,43.0,42.0,29.96,ENE,67,0.0,0.0,97,0.00,,,0.02,,2013-03-28 06:22:00,
2013-03-27 23:31:00,43.0,42.0,29.96,ENE,67,0.0,1.0,98,0.00,,,0.02,,2013-03-28 06:31:00,
2013-03-27 23:42:00,43.0,42.0,29.96,ENE,67,0.0,1.0,98,0.00,,,0.02,,2013-03-28 06:42:00,
2013-03-27 23:52:00,43.0,42.0,29.97,ENE,67,0.0,0.0,98,0.00,,,0.02,,2013-03-28 06:52:00,